Location: Newark
(40.2000°N, 15.6833°E)
Time: 12:59:20
(UTC+00:00)

Envisat - Visible Passes

Search period start: 10 December 2019 00:00
Search period end: 20 December 2019 00:00
Orbit: 764 x 766 km, 98.1° (Epoch: 10 December)

Date Brightness Start Highest point End Pass type
(mag) Time Alt. Az. Time Alt. Az. Time Alt. Az.
10 Dec 5.8 04:44:04 10° NE 04:47:50 20° E 04:51:33 10° SE visible
10 Dec 3.9 15:58:03 10° ESE 16:02:12 26° ENE 16:06:21 10° NNE visible
10 Dec 4.5 17:36:23 10° SSW 17:41:02 36° W 17:45:42 10° NNW visible
11 Dec 3.0 16:59:05 10° S 17:04:10 82° WSW 17:09:17 10° NNW visible
12 Dec 4.8 05:08:50 10° NNE 05:13:30 36° E 05:18:09 10° SSE visible
12 Dec 3.3 16:22:42 10° SE 16:27:30 44° ENE 16:32:19 10° N visible
12 Dec 5.5 18:02:58 10° SW 18:06:43 21° W 18:10:28 10° NW visible
13 Dec 6.0 04:33:21 10° NE 04:36:26 16° E 04:39:31 10° SE visible
13 Dec 4.1 17:24:51 10° S 17:29:42 46° W 17:34:36 10° NNW visible
14 Dec 3.6 05:34:01 10° NNE 05:39:05 64° E 05:44:06 10° S visible
14 Dec 2.9 16:47:50 10° SSE 16:52:53 79° ENE 16:57:59 10° N visible
14 Dec 6.2 18:31:00 10° WSW 18:32:29 11° W 18:33:58 10° WNW visible
15 Dec 5.2 04:57:47 10° NE 05:02:09 28° E 05:06:29 10° SSE visible
15 Dec 3.5 16:11:42 10° SE 16:16:17 35° ENE 16:20:53 10° N visible
15 Dec 5.1 17:51:08 10° SSW 17:55:20 26° W 17:59:34 10° NW visible
16 Dec 6.2 04:22:58 10° ENE 04:25:02 12° E 04:27:06 10° ESE visible
16 Dec 3.6 17:13:24 10° S 17:18:23 59° W 17:23:25 10° NNW visible
17 Dec 4.1 05:22:49 10° NNE 05:27:46 50° E 05:32:41 10° S visible
17 Dec 3.0 16:36:39 10° SSE 16:41:38 62° ENE 16:46:40 10° N visible
17 Dec 5.9 18:18:17 10° SW 18:21:04 15° W 18:23:51 10° WNW visible
18 Dec 5.6 04:46:50 10° NE 04:50:47 22° E 04:54:43 10° SE visible
18 Dec 3.8 16:00:48 10° SE 16:05:05 28° ENE 16:09:23 10° N visible
18 Dec 4.7 17:39:26 10° SSW 17:43:58 33° W 17:48:33 10° NNW visible
19 Dec 3.2 17:02:02 10° S 17:07:05 75° WSW 17:12:12 10° NNW visible
